Date,TemperatureHighF,TemperatureAvgF,TemperatureLowF,DewpointHighF,DewpointAvgF,DewpointLowF,HumidityHigh,HumidityAvg,HumidityLow,PressureMaxIn,PressureMinIn,WindSpeedMaxMPH,WindSpeedAvgMPH,GustSpeedMaxMPH,PrecipitationSumIn
2013-9-1,73,65,56,63,59,54,95,81,61,0.00,40.00,9,6,20,0.04
2013-9-2,59,53,43,52,48,42,95,85,67,0.00,40.00,7,4,14,0.01
2013-9-3,74,56,38,54,47,37,96,77,47,0.00,40.00,7,3,14,0.01
2013-9-4,69,59,45,57,52,43,94,78,50,0.00,40.00,7,3,13,0.00
2013-9-5,76,58,39,54,46,38,95,70,38,0.00,40.00,4,2,8,0.00
2013-9-6,81,67,53,68,59,49,93,78,60,0.00,40.00,7,3,16,0.00
2013-9-7,82,67,58,69,61,-100,96,81,62,0.00,40.00,9,3,17,0.00
2013-9-8,71,59,42,56,50,41,95,75,50,0.00,40.00,6,2,14,0.00
2013-9-9,80,66,57,73,63,52,96,89,75,0.00,40.00,5,2,11,0.19
2013-9-10,75,69,65,68,65,62,98,88,68,0.00,40.00,7,4,14,0.03
2013-9-11,77,66,56,62,58,50,98,78,44,0.00,40.00,8,4,19,0.03
2013-9-12,62,54,43,54,48,41,98,83,50,0.00,40.00,9,4,18,0.04
2013-9-13,63,48,33,47,41,32,95,79,47,0.00,40.00,5,1,10,0.00
2013-9-14,67,51,35,53,43,-100,96,77,50,0.00,40.00,9,2,17,0.05
2013-9-15,55,49,34,53,46,33,97,90,75,0.00,40.00,8,2,18,0.16
2013-9-16,64,46,29,43,36,28,96,74,39,0.00,40.00,4,1,8,0.02
2013-9-17,68,54,38,49,42,36,93,68,42,0.00,40.00,7,4,17,0.00
2013-9-18,65,57,55,63,55,51,97,93,82,0.00,40.00,5,3,13,0.03
2013-9-19,76,67,63,69,65,62,98,92,79,0.00,40.00,6,3,21,0.06
2013-9-20,65,58,48,64,54,44,95,85,65,0.00,40.00,8,5,17,0.02
2013-9-21,56,47,35,45,38,-100,94,76,52,0.00,40.00,9,4,17,0.01
2013-9-22,63,44,28,43,36,27,95,75,44,0.00,40.00,5,2,11,0.01
2013-9-23,69,53,41,50,45,39,94,76,45,0.00,40.00,5,3,15,0.00
2013-9-24,74,55,42,50,46,41,97,76,40,0.00,40.00,5,2,10,0.00
2013-9-25,74,53,37,53,45,36,96,78,37,0.00,40.00,4,1,9,0.00
2013-9-26,73,56,42,52,47,41,97,75,38,0.00,40.00,5,2,12,0.00
2013-9-27,77,65,53,57,52,47,87,64,48,0.00,40.00,8,4,18,0.00
2013-9-28,74,60,51,60,50,-100,94,74,55,0.00,40.00,11,6,27,0.33
2013-9-29,70,54,40,47,43,38,96,72,32,0.00,40.00,7,4,15,0.03
2013-9-30,71,60,51,48,46,44,77,61,43,0.00,40.00,10,5,26,0.00